Year,Month,Day,Hour,Minute,Value (Times are PST for temperature in C)
2015,09,27,00,00,8.70
2015,09,27,00,01,8.70
2015,09,27,00,02,8.70
2015,09,27,00,03,8.70
2015,09,27,00,04,8.70
2015,09,27,00,05,8.70
2015,09,27,00,06,8.70
2015,09,27,00,07,8.70
2015,09,27,00,08,8.70
2015,09,27,00,09,8.80
2015,09,27,00,10,8.80
2015,09,27,00,11,8.80
2015,09,27,00,12,8.80
2015,09,27,00,13,8.70
2015,09,27,00,14,8.70
2015,09,27,00,15,8.70
2015,09,27,00,16,8.70
2015,09,27,00,17,8.70
2015,09,27,00,18,8.70
2015,09,27,00,19,8.60
2015,09,27,00,20,8.60
2015,09,27,00,21,8.60
2015,09,27,00,22,8.50
2015,09,27,00,23,8.50
2015,09,27,00,24,8.50
2015,09,27,00,25,8.50
2015,09,27,00,26,8.50
2015,09,27,00,27,8.50
2015,09,27,00,28,8.60
2015,09,27,00,29,8.60
2015,09,27,00,30,8.60
2015,09,27,00,31,8.60
2015,09,27,00,32,8.50
2015,09,27,00,33,8.40
2015,09,27,00,34,8.30
2015,09,27,00,35,8.20
2015,09,27,00,36,8.20
2015,09,27,00,37,8.10
2015,09,27,00,38,8.10
2015,09,27,00,39,8.10
2015,09,27,00,40,8.10
2015,09,27,00,41,8.00
2015,09,27,00,42,8.00
2015,09,27,00,43,8.00
2015,09,27,00,44,8.10
2015,09,27,00,45,8.10
2015,09,27,00,46,8.10
2015,09,27,00,47,8.10
2015,09,27,00,48,8.10
2015,09,27,00,49,8.10
2015,09,27,00,50,8.10
2015,09,27,00,51,8.00
2015,09,27,00,52,8.00
2015,09,27,00,53,7.90
2015,09,27,00,54,7.90
2015,09,27,00,55,8.00
2015,09,27,00,56,8.00
2015,09,27,00,57,8.00
2015,09,27,00,58,8.00
2015,09,27,00,59,7.90
2015,09,27,01,00,8.00
2015,09,27,01,01,8.00
2015,09,27,01,02,8.10
2015,09,27,01,03,8.20
2015,09,27,01,04,8.30
2015,09,27,01,05,8.30
2015,09,27,01,06,8.30
2015,09,27,01,07,8.30
2015,09,27,01,08,8.20
2015,09,27,01,09,8.10
2015,09,27,01,10,8.00
2015,09,27,01,11,8.00
2015,09,27,01,12,7.90
2015,09,27,01,13,7.90
2015,09,27,01,14,7.80
2015,09,27,01,15,7.80
2015,09,27,01,16,7.80
2015,09,27,01,17,7.80
2015,09,27,01,18,7.80
2015,09,27,01,19,7.80
2015,09,27,01,20,7.60
2015,09,27,01,21,7.60
2015,09,27,01,22,7.60
2015,09,27,01,23,7.60
2015,09,27,01,24,7.60
2015,09,27,01,25,7.60
2015,09,27,01,26,7.60
2015,09,27,01,27,7.60
2015,09,27,01,28,7.60
2015,09,27,01,29,7.60
2015,09,27,01,30,7.60
2015,09,27,01,31,7.60
2015,09,27,01,32,7.50
2015,09,27,01,33,7.50
2015,09,27,01,34,7.40
2015,09,27,01,35,7.40
2015,09,27,01,36,7.30
2015,09,27,01,37,7.30
2015,09,27,01,38,7.30
2015,09,27,01,39,7.30
2015,09,27,01,40,7.30
2015,09,27,01,41,7.30
2015,09,27,01,42,7.40
2015,09,27,01,43,7.40
2015,09,27,01,44,7.50
2015,09,27,01,45,7.60
2015,09,27,01,46,7.60
2015,09,27,01,47,7.60
2015,09,27,01,48,7.60
2015,09,27,01,49,7.50
2015,09,27,01,50,7.50
2015,09,27,01,51,7.50
2015,09,27,01,52,7.40
2015,09,27,01,53,7.40
2015,09,27,01,54,7.40
2015,09,27,01,55,7.40
2015,09,27,01,56,7.40
2015,09,27,01,57,7.40
2015,09,27,01,58,7.40
2015,09,27,01,59,7.40
2015,09,27,02,00,7.40
2015,09,27,02,01,7.30
2015,09,27,02,02,7.30
2015,09,27,02,03,7.30
2015,09,27,02,04,7.30
2015,09,27,02,05,7.30
2015,09,27,02,06,7.30
2015,09,27,02,07,7.40
2015,09,27,02,08,7.40
2015,09,27,02,09,7.50
2015,09,27,02,10,7.50
2015,09,27,02,11,7.60
2015,09,27,02,12,7.60
2015,09,27,02,13,7.60
2015,09,27,02,14,7.60
2015,09,27,02,15,7.50
2015,09,27,02,16,7.40
2015,09,27,02,17,7.30
2015,09,27,02,18,7.20
2015,09,27,02,19,7.20
2015,09,27,02,20,7.30
2015,09,27,02,21,7.40
2015,09,27,02,22,7.50
2015,09,27,02,23,7.60
2015,09,27,02,24,7.60
2015,09,27,02,25,7.70
2015,09,27,02,26,7.70
2015,09,27,02,27,7.70
2015,09,27,02,28,7.70
2015,09,27,02,29,7.60
2015,09,27,02,30,7.50
2015,09,27,02,31,7.50
2015,09,27,02,32,7.40
2015,09,27,02,33,7.40
2015,09,27,02,34,7.40
2015,09,27,02,35,7.40
2015,09,27,02,36,7.40
2015,09,27,02,37,7.40
2015,09,27,02,38,7.40
2015,09,27,02,39,7.40
2015,09,27,02,40,7.40
2015,09,27,02,41,7.40
2015,09,27,02,42,7.40
2015,09,27,02,43,7.40
2015,09,27,02,44,7.50
2015,09,27,02,45,7.50
2015,09,27,02,46,7.50
2015,09,27,02,47,7.40
2015,09,27,02,48,7.30
2015,09,27,02,49,7.20
2015,09,27,02,50,7.10
2015,09,27,02,51,7.00
2015,09,27,02,52,6.90
2015,09,27,02,53,6.80
2015,09,27,02,54,6.80
2015,09,27,02,55,6.70
2015,09,27,02,56,6.70
2015,09,27,02,57,6.60
2015,09,27,02,58,6.60
2015,09,27,02,59,6.60
2015,09,27,03,00,6.60
2015,09,27,03,01,6.60
2015,09,27,03,02,6.70
2015,09,27,03,03,6.70
2015,09,27,03,04,6.70
2015,09,27,03,05,6.80
2015,09,27,03,06,6.80
2015,09,27,03,07,6.80
2015,09,27,03,08,6.90
2015,09,27,03,09,6.90
2015,09,27,03,10,6.90
2015,09,27,03,11,6.90
2015,09,27,03,12,6.90
2015,09,27,03,13,6.90
2015,09,27,03,14,6.90
2015,09,27,03,15,6.80
2015,09,27,03,16,6.80
2015,09,27,03,17,6.80
2015,09,27,03,18,6.80
2015,09,27,03,19,6.80
2015,09,27,03,20,6.80
2015,09,27,03,21,6.80
2015,09,27,03,22,6.80
2015,09,27,03,23,6.70
2015,09,27,03,24,6.70
2015,09,27,03,25,6.70
2015,09,27,03,26,6.60
2015,09,27,03,27,6.60
2015,09,27,03,28,6.50
2015,09,27,03,29,6.40
2015,09,27,03,30,6.30
2015,09,27,03,31,6.20
2015,09,27,03,32,6.20
2015,09,27,03,33,6.10
2015,09,27,03,34,6.10
2015,09,27,03,35,6.10
2015,09,27,03,36,6.10
2015,09,27,03,37,6.00
2015,09,27,03,38,6.00
2015,09,27,03,39,6.00
2015,09,27,03,40,6.00
2015,09,27,03,41,6.00
2015,09,27,03,42,6.00
2015,09,27,03,43,6.10
2015,09,27,03,44,6.10
2015,09,27,03,45,6.10
2015,09,27,03,46,6.10
2015,09,27,03,47,6.10
2015,09,27,03,48,6.00
2015,09,27,03,49,6.10
2015,09,27,03,50,6.10
2015,09,27,03,51,6.10
2015,09,27,03,52,6.10
2015,09,27,03,53,6.00
2015,09,27,03,54,6.00
2015,09,27,03,55,6.00
2015,09,27,03,56,6.00
2015,09,27,03,57,6.00
2015,09,27,03,58,6.00
2015,09,27,03,59,6.00
2015,09,27,04,00,6.00
2015,09,27,04,01,6.00
2015,09,27,04,02,6.00
2015,09,27,04,03,6.00
2015,09,27,04,04,6.10
2015,09,27,04,05,6.10
2015,09,27,04,06,6.10
2015,09,27,04,07,6.00
2015,09,27,04,08,6.00
2015,09,27,04,09,6.00
2015,09,27,04,10,6.00
2015,09,27,04,11,6.00
2015,09,27,04,12,6.20
2015,09,27,04,13,6.30
2015,09,27,04,14,6.30
2015,09,27,04,15,6.30
2015,09,27,04,16,6.20
2015,09,27,04,17,6.10
2015,09,27,04,18,6.10
2015,09,27,04,19,6.10
2015,09,27,04,20,6.00
2015,09,27,04,21,6.00
2015,09,27,04,22,6.00
2015,09,27,04,23,6.00
2015,09,27,04,24,5.90
2015,09,27,04,25,5.90
2015,09,27,04,26,5.90
2015,09,27,04,27,5.90
2015,09,27,04,28,6.00
2015,09,27,04,29,6.00
2015,09,27,04,30,5.90
2015,09,27,04,31,5.90
2015,09,27,04,32,5.80
2015,09,27,04,33,5.80
2015,09,27,04,34,5.80
2015,09,27,04,35,5.80
2015,09,27,04,36,5.80
2015,09,27,04,37,5.70
2015,09,27,04,38,5.70
2015,09,27,04,39,5.70
2015,09,27,04,40,5.70
2015,09,27,04,41,5.70
2015,09,27,04,42,5.80
2015,09,27,04,43,5.80
2015,09,27,04,44,5.80
2015,09,27,04,45,5.80
2015,09,27,04,46,5.80
2015,09,27,04,47,5.70
2015,09,27,04,48,5.70
2015,09,27,04,49,5.60
2015,09,27,04,50,5.60
2015,09,27,04,51,5.50
2015,09,27,04,52,5.40
2015,09,27,04,53,5.40
2015,09,27,04,54,5.40
2015,09,27,04,55,5.30
2015,09,27,04,56,5.30
2015,09,27,04,57,5.30
2015,09,27,04,58,5.30
2015,09,27,04,59,5.30
2015,09,27,05,00,5.30
2015,09,27,05,01,5.30
2015,09,27,05,02,5.40
2015,09,27,05,03,5.40
2015,09,27,05,04,5.40
2015,09,27,05,05,5.40
2015,09,27,05,06,5.40
2015,09,27,05,07,5.40
2015,09,27,05,08,5.40
2015,09,27,05,09,5.40
2015,09,27,05,10,5.40
2015,09,27,05,11,5.40
2015,09,27,05,12,5.30
2015,09,27,05,13,5.30
2015,09,27,05,14,5.30
2015,09,27,05,15,5.30
2015,09,27,05,16,5.30
2015,09,27,05,17,5.30
2015,09,27,05,18,5.30
2015,09,27,05,19,5.30
2015,09,27,05,20,5.30
2015,09,27,05,21,5.20
2015,09,27,05,22,5.20
2015,09,27,05,23,5.20
2015,09,27,05,24,5.20
2015,09,27,05,25,5.30
2015,09,27,05,26,5.30
2015,09,27,05,27,5.40
2015,09,27,05,28,5.40
2015,09,27,05,29,5.40
2015,09,27,05,30,5.50
2015,09,27,05,31,5.50
2015,09,27,05,32,5.50
2015,09,27,05,33,5.50
2015,09,27,05,34,5.50
2015,09,27,05,35,5.40
2015,09,27,05,36,5.40
2015,09,27,05,37,5.50
2015,09,27,05,38,5.50
2015,09,27,05,39,5.60
2015,09,27,05,40,5.60
2015,09,27,05,41,5.50
2015,09,27,05,42,5.40
2015,09,27,05,43,5.40
2015,09,27,05,44,5.30
2015,09,27,05,45,5.30
2015,09,27,05,46,5.30
2015,09,27,05,47,5.40
2015,09,27,05,48,5.50
2015,09,27,05,49,5.60
2015,09,27,05,50,5.60
2015,09,27,05,51,5.60
2015,09,27,05,52,5.50
2015,09,27,05,53,5.40
2015,09,27,05,54,5.40
2015,09,27,05,55,5.30
2015,09,27,05,56,5.30
2015,09,27,05,57,5.20
2015,09,27,05,58,5.20
2015,09,27,05,59,5.20
2015,09,27,06,00,5.20
2015,09,27,06,01,5.20
2015,09,27,06,02,5.10
2015,09,27,06,03,5.10
2015,09,27,06,04,5.10
2015,09,27,06,05,5.10
2015,09,27,06,06,5.10
2015,09,27,06,07,5.10
2015,09,27,06,08,5.10
2015,09,27,06,09,5.10
2015,09,27,06,10,5.20
2015,09,27,06,11,5.20
2015,09,27,06,12,5.20
2015,09,27,06,13,5.20
2015,09,27,06,14,5.10
2015,09,27,06,15,5.10
2015,09,27,06,16,5.10
2015,09,27,06,17,5.10
2015,09,27,06,18,5.00
2015,09,27,06,19,5.00
2015,09,27,06,20,5.00
2015,09,27,06,21,5.00
2015,09,27,06,22,5.00
2015,09,27,06,23,5.00
2015,09,27,06,24,5.00
2015,09,27,06,25,5.10
2015,09,27,06,26,5.10
2015,09,27,06,27,5.10
2015,09,27,06,28,5.10
2015,09,27,06,29,5.10
2015,09,27,06,30,5.10
2015,09,27,06,31,5.10
2015,09,27,06,32,5.10
2015,09,27,06,33,5.10
2015,09,27,06,34,5.10
2015,09,27,06,35,5.10
2015,09,27,06,36,5.10
2015,09,27,06,37,5.10
2015,09,27,06,38,5.10
2015,09,27,06,39,5.00
2015,09,27,06,40,5.00
2015,09,27,06,41,5.00
2015,09,27,06,42,4.90
2015,09,27,06,43,4.90
2015,09,27,06,44,4.90
2015,09,27,06,45,4.90
2015,09,27,06,46,4.80
2015,09,27,06,47,4.80
2015,09,27,06,48,4.70
2015,09,27,06,49,4.70
2015,09,27,06,50,4.70
2015,09,27,06,51,4.70
2015,09,27,06,52,4.70
2015,09,27,06,53,4.70
2015,09,27,06,54,4.70
2015,09,27,06,55,4.70
2015,09,27,06,56,4.80
2015,09,27,06,57,4.90
2015,09,27,06,58,4.90
2015,09,27,06,59,4.90
2015,09,27,07,00,4.90
2015,09,27,07,01,4.90
2015,09,27,07,02,4.90
2015,09,27,07,03,4.80
2015,09,27,07,04,4.80
2015,09,27,07,05,4.70
2015,09,27,07,06,4.70
2015,09,27,07,07,4.70
2015,09,27,07,08,4.70
2015,09,27,07,09,4.70
2015,09,27,07,10,4.70
2015,09,27,07,11,4.70
2015,09,27,07,12,4.70
2015,09,27,07,13,4.70
2015,09,27,07,14,4.70
2015,09,27,07,15,4.70
2015,09,27,07,16,4.70
2015,09,27,07,17,4.70
2015,09,27,07,18,4.70
2015,09,27,07,19,4.70
2015,09,27,07,20,4.70
2015,09,27,07,21,4.70
2015,09,27,07,22,4.70
2015,09,27,07,23,4.70
2015,09,27,07,24,4.80
2015,09,27,07,25,4.80
2015,09,27,07,26,4.90
2015,09,27,07,27,4.90
2015,09,27,07,28,4.90
2015,09,27,07,29,5.00
2015,09,27,07,30,5.00
2015,09,27,07,31,5.10
2015,09,27,07,32,5.10
2015,09,27,07,33,5.10
2015,09,27,07,34,5.10
2015,09,27,07,35,5.10
2015,09,27,07,36,5.10
2015,09,27,07,37,5.10
2015,09,27,07,38,5.00
2015,09,27,07,39,5.00
2015,09,27,07,40,5.10
2015,09,27,07,41,5.10
2015,09,27,07,42,5.10
2015,09,27,07,43,5.20
2015,09,27,07,44,5.20
2015,09,27,07,45,5.20
2015,09,27,07,46,5.20
2015,09,27,07,47,5.20
2015,09,27,07,48,5.30
2015,09,27,07,49,5.30
2015,09,27,07,50,5.30
2015,09,27,07,51,5.40
2015,09,27,07,52,5.50
2015,09,27,07,53,5.60
2015,09,27,07,54,5.60
2015,09,27,07,55,5.70
2015,09,27,07,56,5.80
2015,09,27,07,57,5.90
2015,09,27,07,58,6.00
2015,09,27,07,59,6.00
2015,09,27,08,00,6.10
2015,09,27,08,01,6.20
2015,09,27,08,02,6.20
2015,09,27,08,03,6.30
2015,09,27,08,04,6.30
2015,09,27,08,05,6.40
2015,09,27,08,06,6.50
2015,09,27,08,07,6.60
2015,09,27,08,08,6.60
2015,09,27,08,09,6.70
2015,09,27,08,10,6.80
2015,09,27,08,11,6.90
2015,09,27,08,12,7.00
2015,09,27,08,13,7.10
2015,09,27,08,14,7.20
2015,09,27,08,15,7.30
2015,09,27,08,16,7.30
2015,09,27,08,17,7.40
2015,09,27,08,18,7.50
2015,09,27,08,19,7.60
2015,09,27,08,20,7.60
2015,09,27,08,21,7.70
2015,09,27,08,22,7.80
2015,09,27,08,23,7.80
2015,09,27,08,24,7.90
2015,09,27,08,25,8.00
2015,09,27,08,26,8.10
2015,09,27,08,27,8.10
2015,09,27,08,28,8.20
2015,09,27,08,29,8.30
2015,09,27,08,30,8.30
2015,09,27,08,31,8.30
2015,09,27,08,32,8.40
2015,09,27,08,33,8.40
2015,09,27,08,34,8.50
2015,09,27,08,35,8.50
2015,09,27,08,36,8.60
2015,09,27,08,37,8.60
2015,09,27,08,38,8.60
2015,09,27,08,39,8.70
2015,09,27,08,40,8.70
2015,09,27,08,41,8.80
2015,09,27,08,42,8.80
2015,09,27,08,43,8.80
2015,09,27,08,44,8.80
2015,09,27,08,45,8.90
2015,09,27,08,46,8.90
2015,09,27,08,47,8.90
2015,09,27,08,48,9.00
2015,09,27,08,49,9.00
2015,09,27,08,50,9.10
2015,09,27,08,51,9.20
2015,09,27,08,52,9.30
2015,09,27,08,53,9.30
2015,09,27,08,54,9.40
2015,09,27,08,55,9.50
2015,09,27,08,56,9.50
2015,09,27,08,57,9.60
2015,09,27,08,58,9.70
2015,09,27,08,59,9.80
2015,09,27,09,00,9.90
2015,09,27,09,01,10.00
2015,09,27,09,02,10.10
2015,09,27,09,03,10.20
2015,09,27,09,04,10.30
2015,09,27,09,05,10.30
2015,09,27,09,06,10.40
2015,09,27,09,07,10.50
2015,09,27,09,08,10.60
2015,09,27,09,09,10.70
2015,09,27,09,10,10.70
2015,09,27,09,11,10.80
2015,09,27,09,12,10.80
2015,09,27,09,13,10.80
2015,09,27,09,14,10.90
2015,09,27,09,15,10.90
2015,09,27,09,16,10.90
2015,09,27,09,17,11.00
2015,09,27,09,18,11.00
2015,09,27,09,19,11.00
2015,09,27,09,20,11.10
2015,09,27,09,21,11.10
2015,09,27,09,22,11.10
2015,09,27,09,23,11.10
2015,09,27,09,24,11.00
2015,09,27,09,25,11.00
2015,09,27,09,26,11.00
2015,09,27,09,27,11.00
2015,09,27,09,28,10.90
2015,09,27,09,29,10.90
2015,09,27,09,30,10.90
2015,09,27,09,31,11.00
2015,09,27,09,32,11.00
2015,09,27,09,33,11.00
2015,09,27,09,34,11.00
2015,09,27,09,35,11.00
2015,09,27,09,36,11.10
2015,09,27,09,37,11.10
2015,09,27,09,38,11.10
2015,09,27,09,39,11.10
2015,09,27,09,40,11.10
2015,09,27,09,41,11.10
2015,09,27,09,42,11.10
2015,09,27,09,43,11.20
2015,09,27,09,44,11.20
2015,09,27,09,45,11.30
2015,09,27,09,46,11.30
2015,09,27,09,47,11.30
2015,09,27,09,48,11.30
2015,09,27,09,49,11.30
2015,09,27,09,50,11.30
2015,09,27,09,51,11.30
2015,09,27,09,52,11.30
2015,09,27,09,53,11.30
2015,09,27,09,54,11.30
2015,09,27,09,55,11.30
2015,09,27,09,56,11.30
2015,09,27,09,57,11.30
2015,09,27,09,58,11.30
2015,09,27,09,59,11.40
2015,09,27,10,00,11.40
2015,09,27,10,01,11.40
2015,09,27,10,02,11.40
2015,09,27,10,03,11.50
2015,09,27,10,04,11.50
2015,09,27,10,05,11.60
2015,09,27,10,06,11.60
2015,09,27,10,07,11.60
2015,09,27,10,08,11.70
2015,09,27,10,09,11.70
2015,09,27,10,10,11.70
2015,09,27,10,11,11.80
2015,09,27,10,12,11.80
2015,09,27,10,13,11.80
2015,09,27,10,14,11.70
2015,09,27,10,15,11.70
2015,09,27,10,16,11.70
2015,09,27,10,17,11.80
2015,09,27,10,18,11.80
2015,09,27,10,19,11.80
2015,09,27,10,20,11.80
2015,09,27,10,21,11.80
2015,09,27,10,22,11.80
2015,09,27,10,23,11.90
2015,09,27,10,24,11.90
2015,09,27,10,25,11.90
2015,09,27,10,26,11.90
2015,09,27,10,27,12.00
2015,09,27,10,28,12.00
2015,09,27,10,29,12.10
2015,09,27,10,30,12.10
2015,09,27,10,31,12.10
2015,09,27,10,32,12.20
2015,09,27,10,33,12.20
2015,09,27,10,34,12.20
2015,09,27,10,35,12.20
2015,09,27,10,36,12.30
2015,09,27,10,37,12.30
2015,09,27,10,38,12.30
2015,09,27,10,39,12.30
2015,09,27,10,40,12.30
2015,09,27,10,41,12.30
2015,09,27,10,42,12.40
2015,09,27,10,43,12.40
2015,09,27,10,44,12.40
2015,09,27,10,45,12.40
2015,09,27,10,46,12.40
2015,09,27,10,47,12.40
2015,09,27,10,48,12.40
2015,09,27,10,49,12.40
2015,09,27,10,50,12.40
2015,09,27,10,51,12.40
2015,09,27,10,52,12.40
2015,09,27,10,53,12.50
2015,09,27,10,54,12.50
2015,09,27,10,55,12.60
2015,09,27,10,56,12.60
2015,09,27,10,57,12.60
2015,09,27,10,58,12.70
2015,09,27,10,59,12.70
2015,09,27,11,00,12.80
2015,09,27,11,01,12.90
2015,09,27,11,02,12.90
2015,09,27,11,03,13.00
2015,09,27,11,04,13.00
2015,09,27,11,05,13.10
2015,09,27,11,06,13.10
2015,09,27,11,07,13.10
2015,09,27,11,08,13.10
2015,09,27,11,09,13.10
2015,09,27,11,10,13.10
2015,09,27,11,11,13.20
2015,09,27,11,12,13.20
2015,09,27,11,13,13.30
2015,09,27,11,14,13.30
2015,09,27,11,15,13.40
2015,09,27,11,16,13.40
2015,09,27,11,17,13.50
2015,09,27,11,18,13.50
2015,09,27,11,19,13.50
2015,09,27,11,20,13.50
2015,09,27,11,21,13.50
2015,09,27,11,22,13.40
2015,09,27,11,23,13.30
2015,09,27,11,24,13.30
2015,09,27,11,25,13.30
2015,09,27,11,26,13.20
2015,09,27,11,27,13.30
2015,09,27,11,28,13.30
2015,09,27,11,29,13.30
2015,09,27,11,30,13.40
2015,09,27,11,31,13.40
2015,09,27,11,32,13.30
2015,09,27,11,33,13.30
2015,09,27,11,34,13.30
2015,09,27,11,35,13.20
2015,09,27,11,36,13.20
2015,09,27,11,37,13.30
2015,09,27,11,38,13.30
2015,09,27,11,39,13.30
2015,09,27,11,40,13.40
2015,09,27,11,41,13.40
2015,09,27,11,42,13.30
2015,09,27,11,43,13.40
2015,09,27,11,44,13.40
2015,09,27,11,45,13.50
2015,09,27,11,46,13.50
2015,09,27,11,47,13.50
2015,09,27,11,48,13.40
2015,09,27,11,49,13.40
2015,09,27,11,50,13.40
2015,09,27,11,51,13.40
2015,09,27,11,52,13.50
2015,09,27,11,53,13.50
2015,09,27,11,54,13.50
2015,09,27,11,55,13.50
2015,09,27,11,56,13.40
2015,09,27,11,57,13.40
2015,09,27,11,58,13.40
2015,09,27,11,59,13.40
2015,09,27,12,00,13.40
2015,09,27,12,01,13.40
2015,09,27,12,02,13.30
2015,09,27,12,03,13.30
2015,09,27,12,04,13.30
2015,09,27,12,05,13.40
2015,09,27,12,06,13.40
2015,09,27,12,07,13.40
2015,09,27,12,08,13.40
2015,09,27,12,09,13.50
2015,09,27,12,10,13.40
2015,09,27,12,11,13.40
2015,09,27,12,12,13.40
2015,09,27,12,13,13.50
2015,09,27,12,14,13.50
2015,09,27,12,15,13.50
2015,09,27,12,16,13.50
2015,09,27,12,17,13.40
2015,09,27,12,18,13.40
2015,09,27,12,19,13.40
2015,09,27,12,20,13.30
2015,09,27,12,21,13.30
2015,09,27,12,22,13.40
2015,09,27,12,23,13.50
2015,09,27,12,24,13.50
2015,09,27,12,25,13.50
2015,09,27,12,26,13.60
2015,09,27,12,27,13.60
2015,09,27,12,28,13.60
2015,09,27,12,29,13.60
2015,09,27,12,30,13.50
2015,09,27,12,31,13.50
2015,09,27,12,32,13.50
2015,09,27,12,33,13.40
2015,09,27,12,34,13.30
2015,09,27,12,35,13.30
2015,09,27,12,36,13.30
2015,09,27,12,37,13.20
2015,09,27,12,38,13.30
2015,09,27,12,39,13.30
2015,09,27,12,40,13.20
2015,09,27,12,41,13.30
2015,09,27,12,42,13.40
2015,09,27,12,43,13.60
2015,09,27,12,44,13.70
2015,09,27,12,45,13.70
2015,09,27,12,46,13.70
2015,09,27,12,47,13.60
2015,09,27,12,48,13.60
2015,09,27,12,49,13.70
2015,09,27,12,50,13.70
2015,09,27,12,51,13.60
2015,09,27,12,52,13.70
2015,09,27,12,53,13.80
2015,09,27,12,54,13.90
2015,09,27,12,55,14.00
2015,09,27,12,56,14.00
2015,09,27,12,57,13.90
2015,09,27,12,58,13.80
2015,09,27,12,59,13.80
2015,09,27,13,00,13.80
2015,09,27,13,01,13.80
2015,09,27,13,02,13.80
2015,09,27,13,03,13.70
2015,09,27,13,04,13.70
2015,09,27,13,05,13.60
2015,09,27,13,06,13.60
2015,09,27,13,07,13.70
2015,09,27,13,08,13.60
2015,09,27,13,09,13.60
2015,09,27,13,10,13.70
2015,09,27,13,11,13.70
2015,09,27,13,12,13.80
2015,09,27,13,13,13.80
2015,09,27,13,14,13.90
2015,09,27,13,15,13.90
2015,09,27,13,16,14.00
2015,09,27,13,17,14.00
2015,09,27,13,18,14.00
2015,09,27,13,19,14.00
2015,09,27,13,20,14.00
2015,09,27,13,21,14.10
2015,09,27,13,22,14.10
2015,09,27,13,23,14.00
2015,09,27,13,24,13.90
2015,09,27,13,25,13.90
2015,09,27,13,26,13.80
2015,09,27,13,27,13.80
2015,09,27,13,28,13.80
2015,09,27,13,29,13.80
2015,09,27,13,30,13.70
2015,09,27,13,31,13.70
2015,09,27,13,32,13.70
2015,09,27,13,33,13.70
2015,09,27,13,34,13.80
2015,09,27,13,35,13.80
2015,09,27,13,36,13.80
2015,09,27,13,37,13.80
2015,09,27,13,38,13.80
2015,09,27,13,39,13.80
2015,09,27,13,40,13.90
2015,09,27,13,41,13.80
2015,09,27,13,42,13.80
2015,09,27,13,43,13.70
2015,09,27,13,44,13.60
2015,09,27,13,45,13.50
2015,09,27,13,46,13.60
2015,09,27,13,47,13.60
2015,09,27,13,48,13.70
2015,09,27,13,49,13.70
2015,09,27,13,50,13.90
2015,09,27,13,51,14.10
2015,09,27,13,52,14.20
2015,09,27,13,53,14.30
2015,09,27,13,54,14.50
2015,09,27,13,55,14.50
2015,09,27,13,56,14.50
2015,09,27,13,57,14.40
2015,09,27,13,58,14.40
2015,09,27,13,59,14.40
2015,09,27,14,00,14.50
2015,09,27,14,01,14.60
2015,09,27,14,02,14.70
2015,09,27,14,03,14.80
2015,09,27,14,04,14.80
2015,09,27,14,05,14.90
2015,09,27,14,06,14.90
2015,09,27,14,07,14.90
2015,09,27,14,08,14.80
2015,09,27,14,09,14.70
2015,09,27,14,10,14.70
2015,09,27,14,11,14.70
2015,09,27,14,12,14.70
2015,09,27,14,13,14.70
2015,09,27,14,14,14.70
2015,09,27,14,15,14.70
2015,09,27,14,16,14.70
2015,09,27,14,17,14.70
2015,09,27,14,18,14.70
2015,09,27,14,19,14.70
2015,09,27,14,20,14.80
2015,09,27,14,21,14.90
2015,09,27,14,22,14.90
2015,09,27,14,23,14.90
2015,09,27,14,24,14.90
2015,09,27,14,25,15.00
2015,09,27,14,26,15.00
2015,09,27,14,27,14.90
2015,09,27,14,28,14.90
2015,09,27,14,29,14.90
2015,09,27,14,30,14.90
2015,09,27,14,31,15.10
2015,09,27,14,32,15.20
2015,09,27,14,33,15.20
2015,09,27,14,34,15.30
2015,09,27,14,35,15.40
2015,09,27,14,36,15.40
2015,09,27,14,37,15.40
2015,09,27,14,38,15.40
2015,09,27,14,39,15.40
2015,09,27,14,40,15.40
2015,09,27,14,41,15.40
2015,09,27,14,42,15.40
2015,09,27,14,43,15.50
2015,09,27,14,44,15.50
2015,09,27,14,45,15.40
2015,09,27,14,46,15.40
2015,09,27,14,47,15.40
2015,09,27,14,48,15.40
2015,09,27,14,49,15.40
2015,09,27,14,50,15.30
2015,09,27,14,51,15.30
2015,09,27,14,52,15.20
2015,09,27,14,53,15.20
2015,09,27,14,54,15.10
2015,09,27,14,55,15.20
2015,09,27,14,56,15.20
2015,09,27,14,57,15.30
2015,09,27,14,58,15.40
2015,09,27,14,59,15.50
2015,09,27,15,00,15.60
2015,09,27,15,01,15.60
2015,09,27,15,02,15.50
2015,09,27,15,03,15.40
2015,09,27,15,04,15.30
2015,09,27,15,05,15.30
2015,09,27,15,06,15.30
2015,09,27,15,07,15.20
2015,09,27,15,08,15.10
2015,09,27,15,09,15.10
2015,09,27,15,10,15.20
2015,09,27,15,11,15.20
2015,09,27,15,12,15.30
2015,09,27,15,13,15.40
2015,09,27,15,14,15.40
2015,09,27,15,15,15.40
2015,09,27,15,16,15.50
2015,09,27,15,17,15.50
2015,09,27,15,18,15.50
2015,09,27,15,19,15.60
2015,09,27,15,20,15.60
2015,09,27,15,21,15.60
2015,09,27,15,22,15.70
2015,09,27,15,23,15.60
2015,09,27,15,24,15.60
2015,09,27,15,25,15.60
2015,09,27,15,26,15.60
2015,09,27,15,27,15.60
2015,09,27,15,28,15.50
2015,09,27,15,29,15.40
2015,09,27,15,30,15.40
2015,09,27,15,31,15.40
2015,09,27,15,32,15.40
2015,09,27,15,33,15.40
2015,09,27,15,34,15.50
2015,09,27,15,35,15.50
2015,09,27,15,36,15.60
2015,09,27,15,37,15.60
2015,09,27,15,38,15.70
2015,09,27,15,39,15.70
2015,09,27,15,40,15.80
2015,09,27,15,41,15.80
2015,09,27,15,42,15.80
2015,09,27,15,43,15.70
2015,09,27,15,44,15.60
2015,09,27,15,45,15.60
2015,09,27,15,46,15.50
2015,09,27,15,47,15.60
2015,09,27,15,48,15.70
2015,09,27,15,49,15.80
2015,09,27,15,50,15.80
2015,09,27,15,51,15.90
2015,09,27,15,52,15.90
2015,09,27,15,53,16.00
2015,09,27,15,54,16.00
2015,09,27,15,55,16.00
2015,09,27,15,56,16.00
2015,09,27,15,57,16.10
2015,09,27,15,58,16.10
2015,09,27,15,59,16.10
2015,09,27,16,00,16.10
2015,09,27,16,01,16.20
2015,09,27,16,02,16.20
2015,09,27,16,03,16.10
2015,09,27,16,04,16.10
2015,09,27,16,05,16.10
2015,09,27,16,06,16.00
2015,09,27,16,07,16.00
2015,09,27,16,08,16.00
2015,09,27,16,09,16.10
2015,09,27,16,10,16.00
2015,09,27,16,11,15.90
2015,09,27,16,12,15.90
2015,09,27,16,13,15.80
2015,09,27,16,14,15.80
2015,09,27,16,15,15.90
2015,09,27,16,16,15.90
2015,09,27,16,17,15.90
2015,09,27,16,18,16.00
2015,09,27,16,19,16.00
2015,09,27,16,20,16.00
2015,09,27,16,21,16.00
2015,09,27,16,22,16.00
2015,09,27,16,23,16.00
2015,09,27,16,24,16.10
2015,09,27,16,25,16.00
2015,09,27,16,26,16.10
2015,09,27,16,27,16.10
2015,09,27,16,28,16.10
2015,09,27,16,29,16.20
2015,09,27,16,30,16.30
2015,09,27,16,31,16.30
2015,09,27,16,32,16.30
2015,09,27,16,33,16.20
2015,09,27,16,34,16.20
2015,09,27,16,35,16.10
2015,09,27,16,36,16.00
2015,09,27,16,37,15.90
2015,09,27,16,38,15.90
2015,09,27,16,39,16.00
2015,09,27,16,40,16.00
2015,09,27,16,41,16.00
2015,09,27,16,42,16.10
2015,09,27,16,43,16.10
2015,09,27,16,44,16.20
2015,09,27,16,45,16.20
2015,09,27,16,46,16.20
2015,09,27,16,47,16.20
2015,09,27,16,48,16.20
2015,09,27,16,49,16.20
2015,09,27,16,50,16.20
2015,09,27,16,51,16.10
2015,09,27,16,52,16.10
2015,09,27,16,53,16.00
2015,09,27,16,54,16.00
2015,09,27,16,55,16.00
2015,09,27,16,56,16.00
2015,09,27,16,57,16.10
2015,09,27,16,58,16.10
2015,09,27,16,59,16.10
2015,09,27,17,00,16.00
2015,09,27,17,01,16.00
2015,09,27,17,02,16.00
2015,09,27,17,03,16.00
2015,09,27,17,04,16.00
2015,09,27,17,05,15.90
2015,09,27,17,06,15.90
2015,09,27,17,07,15.80
2015,09,27,17,08,15.80
2015,09,27,17,09,15.80
2015,09,27,17,10,15.80
2015,09,27,17,11,15.80
2015,09,27,17,12,15.90
2015,09,27,17,13,15.80
2015,09,27,17,14,15.90
2015,09,27,17,15,15.90
2015,09,27,17,16,15.80
2015,09,27,17,17,15.90
2015,09,27,17,18,15.90
2015,09,27,17,19,15.90
2015,09,27,17,20,15.90
2015,09,27,17,21,15.90
2015,09,27,17,22,16.00
2015,09,27,17,23,16.00
2015,09,27,17,24,16.10
2015,09,27,17,25,16.10
2015,09,27,17,26,16.10
2015,09,27,17,27,16.00
2015,09,27,17,28,16.00
2015,09,27,17,29,15.90
2015,09,27,17,30,15.90
2015,09,27,17,31,15.80
2015,09,27,17,32,15.80
2015,09,27,17,33,15.80
2015,09,27,17,34,15.70
2015,09,27,17,35,15.70
2015,09,27,17,36,15.60
2015,09,27,17,37,15.60
2015,09,27,17,38,15.60
2015,09,27,17,39,15.60
2015,09,27,17,40,15.60
2015,09,27,17,41,15.60
2015,09,27,17,42,15.60